Location: Unspecified
(0.0000°N, 0.0000°E)
Time: 19:17:11
(UTC+00:00)

ISS - Visible Passes

Search period start: 20 February 2018 00:00
Search period end: 02 March 2018 00:00
Orbit: 403 x 407 km, 51.6° (Epoch: 21 February)

Date Brightness Start Highest point End Pass type
(mag) Time Alt. Az. Time Alt. Az. Time Alt. Az.
20 Feb -1.8 05:36:53 10° S 05:39:51 31° SE 05:42:48 10° ENE visible
20 Feb -0.4 18:48:36 10° W 18:49:59 12° SW 18:51:23 10° SSW visible
21 Feb -0.5 04:46:11 10° SSE 04:47:41 12° SE 04:49:10 10° E visible
22 Feb -3.7 05:28:36 10° SW 05:31:48 53° NW 05:35:00 10° NNE visible
23 Feb -2.8 04:39:47 46° ESE 04:39:47 46° ESE 04:42:48 10° NE visible
24 Feb -1.7 05:24:27 13° NW 05:24:27 13° NW 05:25:30 10° NNW visible
